Regional Weather Roundup
Issued by NWS

Home | Current Version | Previous Version | Text Only | Print | Product List | Glossary Off
Versions: 1 2 3 4 5 6 7 8 9 10 11 12 13 14 15 16 17 18 19 20 21 22 23 24 25 26 27 28 29 30 31 32 33 34 35 36 37 38 39 40 41 42 43 44 45 46 47 48 49 50

000
ASUS43 KMKX 042300
RWRWI

WISCONSIN REGIONAL WEATHER ROUNDUP
NATIONAL WEATHER SERVICE MILWAUKEE/SULLIVAN WI
600 PM CDT MON MAY 04 2015

NOTE: "FAIR" INDICATES FEW OR NO CLOUDS BELOW 12,000 FEET WITH NO
SIGNIFICANT WEATHER AND/OR OBSTRUCTIONS TO VISIBILITY.

WIZ001-002-006>008-014>016-023>028-050000-
NORTHWEST WISCONSIN

CITY           SKY/WX    TMP DP  RH WIND       PRES   REMARKS
SUPERIOR ARPT  PTSUNNY   67  22  18 NE3       30.18R
ASHLAND        MOSUNNY   65  28  24 E7        30.19F
HAYWARD        MOSUNNY   67  16  14 N7        30.18S
SIREN          MOSUNNY   68  20  15 N5        30.18R
CUMBERLAND     MOSUNNY   66  25  20 E6        30.17S
RICE LAKE      MOSUNNY   68  20  16 W3        30.18S
CHETEK         MOSUNNY   67  31  25 NW3       30.17S
LADYSMITH      MOSUNNY   69  27  21 NW5       30.18R
EAU CLAIRE     NOT AVBL
MENOMONIE      PTSUNNY   69  26  19 NE7       30.17R
NEW RICHMOND   MOSUNNY   69  24  18 NE3       30.17R
OSCEOLA        MOSUNNY   70  28  21 N6        30.19S
$$

WIZ003>005-009-010-017-018-050000-
NORTH CENTRAL WISCONSIN

CITY           SKY/WX    TMP DP  RH WIND       PRES   REMARKS
MANITOWISH WTR SUNNY     61  20  21 N6        30.20R
ARBOR VITAE    SUNNY     64  20  19 N9        30.19R
WOODRUFF       SUNNY     64  20  19 N9        30.19R
RHINELANDER    MOSUNNY   65  25  22 VRB5      30.19R
EAGLE RIVER    SUNNY     65  18  16 NE8       30.18R
LAND O LAKES   SUNNY     62  23  21 CALM      30.20R
PHILLIPS       MOSUNNY   65  25  21 N6        30.17R
TOMAHAWK       MOSUNNY   65  23  19 CALM      30.18R
MEDFORD        PTSUNNY   65  29  25 NW6       30.17R
MERRILL        MOSUNNY   66  28  24 CALM      30.17R
$$

WIZ029-030-035-036-043>047-050000-
CENTRAL WISCONSIN

CITY           SKY/WX    TMP DP  RH WIND       PRES   REMARKS
WAUSAU         PTSUNNY   69  28  21 CALM      30.15R
MOSINEE        NOT AVBL
MARSHFIELD     CLOUDY    68  34  28 SW3       30.17R
STEVENS POINT  CLOUDY    67  31  26 N5        30.16R
WAUPACA        CLOUDY    74  32  21 N3        30.14R
WAUTOMA        NOT AVBL
WISC RAPIDS    CLOUDY    70  30  22 N7        30.16S
CAMP DOUGLAS   NOT AVBL
$$

WIZ011>013-019>022-031-037>040-048>050-050000-
NORTHEAST WISCONSIN

CITY           SKY/WX    TMP DP  RH WIND       PRES   REMARKS
ANTIGO         PTSUNNY   65  31  28 CALM      30.17S
SHAWANO        PTSUNNY   74  32  21 W6        30.14R
OCONTO         MOSUNNY   62  41  45 E10       30.17R
STURGEON BAY   MOSUNNY   57  37  47 E10       30.22R
GREEN BAY      PTSUNNY   64  40  41 E16       30.17R
MANITOWOC      NOT AVBL
APPLETON       MOSUNNY   70  37  30 SE12      30.15R
CLINTONVILLE   PTSUNNY   72  32  23 E5        30.13S
OSHKOSH        PTSUNNY   68  43  40 SE10      30.14S
$$

WIZ032>034-041-042-053>061-050000-
SOUTHWEST WISCONSIN

CITY           SKY/WX    TMP DP  RH WIND       PRES   REMARKS
LA CROSSE      PTSUNNY   72  39  30 N8        30.13R
SPARTA         PTSUNNY   71  32  24 NW6       30.15R
VIROQUA        PTSUNNY   69  41  36 NE6       30.15R
BOSCOBEL       CLOUDY    75  46  35 NE5       30.11S
PRAIRIE DU CHI CLOUDY    73  47  40 NE3       30.10S
PLATTEVILLE    CLOUDY    72  55  56 NE8       30.11S
$$

WIZ056-057-062-063-064-067-068-050000-
SOUTH CENTRAL WISCONSIN

CITY           SKY/WX    TMP DP  RH WIND       PRES   REMARKS
REEDSBURG      MOSUNNY   72  45  38 N3        30.12S
BARABOO/DELLS  NOT AVBL
LONE ROCK      NOT AVBL
MINERAL POINT  CLOUDY    72  52  49 E5        30.12S
MADISON        CLOUDY    71  53  52 E8        30.12S
MIDDLETON      PTSUNNY   73  49  42 E6        30.13S
WATERTOWN      PTSUNNY   67  47  47 E10       30.14R
MONROE         PTSUNNY   70  55  60 NE6       30.11F
JANESVILLE     PTSUNNY   73  55  53 E8        30.11S
$$

WIZ051-052-058>065-066-070>072-050000-
SOUTHEAST WISCONSIN

CITY           SKY/WX    TMP DP  RH WIND       PRES   REMARKS
MILWAUKEE      PTSUNNY   56  39  53 NE9       30.16F
WAUKESHA       MOSUNNY   63  34  34 E12       30.17R
MILWAUKEE/TIMM NOT AVBL
RACINE         MOSUNNY   55  39  54 NE10      30.18S
BURLINGTON     PTSUNNY   64  37  37 E10G18    30.16R
KENOSHA        PTSUNNY   61  39  44 E12       30.16S
FOND DU LAC    PTSUNNY   68  41  37 SE8       30.15R
SHEBOYGAN      PTSUNNY   58  39  49 E9        30.18R
WEST BEND      MOSUNNY   63  36  36 E8        30.17R
JUNEAU         MOSUNNY   69  47  45 SE12      30.15R
$$

LSZ147-162-050000-
LAKE SUPERIOR

STATION/POSITION TIME  TEMP    WIND        PRES    WAVE
                       AIR SEA DIR/SP/G            HT/PER
                 (UTC) (F)     (DEG/KT/KT) (MB)    (FT/S)
W MID LAKE BUOY  2150   40 36  200/ 10/ 12 1023.0F   0
DEVILS ISLAND    2200   62     180/  9/ 10 1022.3F
PORT WING        2240   60     300/  4/  5 1022.0F
SAXON HARBOR     2240   59        CALM     1022.4F
$$

LMZ867-665-643>646-050000-
LAKE MICHIGAN

STATION/POSITION TIME  TEMP    WIND        PRES    WAVE
                       AIR SEA DIR/SP/G            HT/PER
                 (UTC) (F)     (DEG/KT/KT) (MB)    (FT/S)
CHAMBERS ISLAND  2200   58      70/  9/ 12 1021.7S
NORTHPORT PIER   2200   50     150/  6/  7 1022.0R
SISTER BAY       2132   64     110/ 10/ 12   N/A
KEWAUNEE LAKESHO 2200   49      60/  6/ 11 1021.3R
SHEBOYGAN LAKESH 2200   48      20/  7/  8 1022.0S
PORT WASHINGTON  2200   55      40/  6/  7 1022.4
ATWATER BUOY     2200   49     330/  4/  4 1023.0R
MILWAUKEE LAKESH 2200   51      30/  8/  9   N/A
KENOSHA   LAKESH 2200   50     360/ 10/ 11 1021.0S
$$

TC  - TEMPERATURE IN CELSIUS
VSB - VISIBILITY IN STATUTE MILES
WCI - WIND CHILL INDEX
HX  - HEAT INDEX



USA.gov is the U.S. government's official web portal to all federal, state and local government web resources and services.